This demonstration page uses our WeatherBlox Daily Observations layout. Learn more.

Left ArrowRight Arrow

Hourly Observations for May 30, 2017

Temp ( °F °C ) Dew Point ( °F °C ) Humidity (%) Winds ( mph kmh ) Pressure ( in mb ) Visibility ( mi km ) Precip ( " mm )
12:53 am 00:53 Clear 51 10.6 35 1.7 54 54 ENE 10 17 30.10 1019 10 16 0.00 0.00
1:53 am 01:53 Clear 49 9.4 35 1.7 59 59 NE 9 15 30.10 1019 10 16 0.00 0.00
2:53 am 02:53 Clear 48 8.9 34 1.1 58 58 NE 5 7 30.09 1019 10 16 0.00 0.00
3:53 am 03:53 Clear 46 7.8 33 0.6 61 61 Calm 30.10 1019 10 16 0.00 0.00
4:53 am 04:53 Clear 47 8.3 32 0 56 56 ENE 10 17 30.09 1019 10 16 0.00 0.00
5:53 am 05:53 Sunny 45 7.2 33 0.6 63 63 E 9 15 30.09 1019 10 16 0.00 0.00
6:53 am 06:53 Sunny 49 9.4 35 1.7 59 59 ENE 14 22 30.09 1019 10 16 0.00 0.00
7:53 am 07:53 Sunny 55 12.8 35 1.7 47 47 E 9 15 30.08 1019 10 16 0.00 0.00
8:53 am 08:53 Sunny 60 15.6 37 2.8 42 42 E 13 20 30.09 1019 10 16 0.00 0.00
9:53 am 09:53 Sunny 69 20.6 39 3.9 33 33 E 13 20 30.07 1018 10 16 0.00 0.00
10:53 am 10:53 Sunny 72 22.2 35 1.7 26 26 ENE 9 15 30.05 1018 10 16 0.00 0.00
11:53 am 11:53 Sunny 75 23.9 33 0.6 22 22 ESE 7 11 30.04 1017 10 16 0.00 0.00
12:53 pm 12:53 Sunny 77 25 33 0.6 20 20 E 6 9 30.02 1017 10 16 0.00 0.00
1:53 pm 13:53 Sunny 80 26.7 33 0.6 18 18 E 7 11 30.00 1016 10 16 0.00 0.00
2:53 pm 14:53 Mostly Sunny 81 27.2 35 1.7 19 19 E 8 13 29.98 1015 10 16 0.00 0.00
3:53 pm 15:53 Mostly Sunny 81 27.2 36 2.2 20 20 S 7 11 29.96 1015 10 16 0.00 0.00
4:53 pm 16:53 Partly Cloudy 81 27.2 37 2.8 21 21 ESE 8 13 29.94 1014 10 16 0.00 0.00
5:53 pm 17:53 Mostly Sunny 81 27.2 38 3.3 21 21 SSW 6 9 29.93 1014 10 16 0.00 0.00
6:53 pm 18:53 Sunny 78 25.6 39 3.9 25 25 ESE 14 22 29.91 1013 10 16 0.00 0.00
7:53 pm 19:53 Sunny 75 23.9 38 3.3 26 26 ESE 17 28 29.91 1013 10 16 0.00 0.00
8:53 pm 20:53 Sunny 70 21.1 38 3.3 31 31 E 13 20 29.91 1013 10 16 0.00 0.00
9:53 pm 21:53 Clear 65 18.3 35 1.7 33 33 ENE 15 24 29.91 1013 10 16 0.00 0.00
10:53 pm 22:53 Clear 63 17.2 36 2.2 37 37 E 14 22 29.90 1013 10 16 0.00 0.00
11:53 pm 23:53 Clear 59 15 34 1.1 39 39 E 13 20 29.90 1013 10 16 0.00 0.00

Powered by AerisWeather